Location: Baia Mare
(47.6567°N, 23.5850°E)
Time: 12:27:53
(UTC+02:00)

ISS - Pass Details

Date: 05 January 2019
Orbit: 404 x 407 km, 51.6° (Epoch: 16 January)

Event Time Altitude Azimuth Distance (km) Brightness Sun altitude
Exits shadow 05:40:42 25° 53° (NE) 881 -1.7 -24.8°
Drops below altitude 10° 05:42:23 10° 72° (ENE) 1,472 -0.1 -24.5°
Sets 05:44:33 0° 80° (E) 2,333 1.2 -24.2°
